TimeEST,TemperatureF,Dew PointF,Humidity,Sea Level PressureIn,VisibilityMPH,Wind Direction,Wind SpeedMPH,Gust SpeedMPH,PrecipitationIn,Events,Conditions,WindDirDegrees,DateUTC
12:54 AM,30.9,25.0,79,30.25,10.0,SE,10.4,-,N/A,,Clear,130,2012-12-06 05:54:00
1:54 AM,30.9,25.0,79,30.23,10.0,SE,8.1,-,N/A,,Clear,130,2012-12-06 06:54:00
2:54 AM,28.9,24.1,82,30.23,10.0,ESE,6.9,-,N/A,,Clear,110,2012-12-06 07:54:00
3:54 AM,28.0,24.1,85,30.22,10.0,ESE,6.9,-,N/A,,Clear,120,2012-12-06 08:54:00
4:54 AM,28.0,24.1,85,30.22,10.0,ESE,5.8,-,N/A,,Clear,120,2012-12-06 09:54:00
5:54 AM,28.0,24.1,85,30.20,10.0,ESE,4.6,-,N/A,,Clear,120,2012-12-06 10:54:00
6:54 AM,27.0,24.1,89,30.19,10.0,ESE,8.1,-,N/A,,Clear,120,2012-12-06 11:54:00
7:54 AM,28.9,25.0,85,30.19,10.0,ESE,5.8,-,N/A,,Clear,120,2012-12-06 12:54:00
8:54 AM,30.0,26.1,85,30.18,10.0,ESE,4.6,-,N/A,,Clear,120,2012-12-06 13:54:00
9:54 AM,32.0,28.0,85,30.17,10.0,SE,3.5,-,N/A,,Clear,130,2012-12-06 14:54:00
10:54 AM,35.1,28.9,78,30.16,10.0,SE,5.8,-,N/A,,Clear,130,2012-12-06 15:54:00
11:54 AM,37.9,30.9,76,30.11,10.0,SSE,5.8,-,N/A,,Clear,150,2012-12-06 16:54:00
12:54 PM,41.0,34.0,76,30.07,10.0,South,3.5,-,N/A,,Clear,170,2012-12-06 17:54:00
1:54 PM,44.1,35.1,71,30.04,10.0,South,3.5,-,N/A,,Clear,170,2012-12-06 18:54:00
2:54 PM,46.0,35.1,66,30.01,10.0,SSE,5.8,-,N/A,,Clear,160,2012-12-06 19:54:00
3:54 PM,46.9,36.0,66,30.01,10.0,South,5.8,-,N/A,,Clear,180,2012-12-06 20:54:00
4:54 PM,46.0,36.0,68,30.00,10.0,South,3.5,-,N/A,,Clear,180,2012-12-06 21:54:00
5:54 PM,44.1,35.1,71,29.99,10.0,SSE,4.6,-,N/A,,Clear,160,2012-12-06 22:54:00
6:54 PM,43.0,36.0,76,29.99,10.0,Calm,Calm,-,N/A,,Clear,0,2012-12-06 23:54:00
7:54 PM,42.1,36.0,79,29.99,10.0,East,3.5,-,N/A,,Scattered Clouds,90,2012-12-07 00:54:00
8:54 PM,41.0,36.0,82,29.99,10.0,SE,5.8,-,N/A,,Overcast,130,2012-12-07 01:54:00
9:54 PM,42.1,36.0,79,29.98,10.0,Calm,Calm,-,N/A,,Overcast,0,2012-12-07 02:54:00
10:54 PM,42.1,36.0,79,29.97,10.0,Calm,Calm,-,N/A,,Scattered Clouds,0,2012-12-07 03:54:00
11:54 PM,42.1,36.0,79,29.97,10.0,Calm,Calm,-,N/A,,Overcast,0,2012-12-07 04:54:00